Regional Weather Roundup
Issued by NWS

Home | Current Version | Previous Version | Graphics & Text | Print | Product List | Glossary On
Versions: 1 2 3 4 5 6 7 8 9 10 11 12 13 14 15 16 17 18 19 20 21 22 23 24 25 26 27 28 29 30 31 32 33 34 35 36 37 38 39 40 41 42 43 44 45 46 47 48 49 50
342
ASUS44 KJAN 220503
RWRMS

MISSISSIPPI HOURLY WEATHER ROUNDUP
NATIONAL WEATHER SERVICE JACKSON MS
1100 PM CST SUN DEC 21 2014

NOTE: "FAIR: INDICATES FEW OR NO CLOUDS BELOW 12,000 FEET WITH NO
SIGNIFICANT WEATHER AND/OR OBSTRUCTIONS TO VISIBILITY.

MSZ001>002-007>008-010>013-018>021-025>028-034>036-220600-
NORTHWEST MISSISSIPPI

CITY           SKY/WX    TMP DP  RH WIND       PRES   REMARKS
CLARKSDALE     CLOUDY    46  45  93 SE9       29.94F
CLEVELAND      MOCLDY    48  47  97 SE9       29.93F
GREENWOOD      CLOUDY    50  47  89 SE9       29.97S
GREENVILLE     PTCLDY    49  45  86 SE12      29.92F
GRENADA        CLOUDY    46  45  93 CALM      29.98S
OLIVE BRANCH   PTCLDY    45  45 100 SE10G16   29.95F
OXFORD         FAIR      41  39  93 SE6       29.98F
TUNICA         PTCLDY    45  41  87 SE5       29.95S
$$

MSZ003>006-009-014>017-022>024-029>033-037>039-220600-
NORTHEAST MISSISSIPPI

CITY           SKY/WX    TMP DP  RH WIND       PRES   REMARKS
COLUMBUS AFB   CLOUDY    47  46  95 SE6       30.00F
CORINTH        CLOUDY    45  41  87 SE7       29.98F
GOLDN TRIANGLE CLOUDY    48  45  87 SE8       29.99F
STARKVILLE     CLOUDY    46  46 100 SE7       29.99F FOG
TUPELO         CLOUDY    47  44  90 S12       30.00S
$$

MSZ040-058-220600-
CENTRAL MISSISSIPPI

CITY           SKY/WX    TMP DP  RH WIND       PRES   REMARKS
JACKSON INTL   CLOUDY    51  48  89 SE7       29.96F
JACKSON HAWKNS CLOUDY    50  48  93 SE7       29.97S FOG
MERIDIAN KEY   CLOUDY    51  49  92 CALM      30.00F
MERIDIAN NAS   CLOUDY    48  47  96 E3        30.00F FOG
RAYMOND        CLOUDY    50  46  87 SE6       29.97F FOG
VICKSBURG      PTCLDY    50  47  89 SE9       29.94F
$$

MSZ059>079-220600-
SOUTH MISSISSIPPI

CITY           SKY/WX    TMP DP  RH WIND       PRES   REMARKS
HATTIESBURG    CLOUDY    52  51  97 E3        29.99F FOG
MCCOMB         CLOUDY    51  48  89 SE8       29.95F
NATCHEZ        MOCLDY    52  46  82 CALM      29.94F
PINE BELT      CLOUDY    52  46  82 E3        29.99F
$$

MSZ080>082-220600-
COASTAL MISSISSIPPI

CITY           SKY/WX    TMP DP  RH WIND       PRES   REMARKS
BILOXI         CLOUDY    56  56 100 NE6       29.98S
PASCAGOULA     CLOUDY    56  54  93 NE6       29.98F
GULFPORT       CLOUDY    56  54  93 NE5       29.97F FOG
$$



USA.gov is the U.S. government's official web portal to all federal, state and local government web resources and services.